weather.gov     
National Weather Service

Regional Weather Roundup
NWS Homepage
This page is being discontinued on March 12, 2014.
The same data is available at this site. Please update your bookmarks.
Thank you, and we apologize for the inconvenience.
Please send an email to SR-SRH.Webmaster@noaa.gov with any concerns.


Current Version
Previous Version:    01  02  03  04  05  06  07  08  09  10  11  12  13  14  15  16  17  18  19  20  21  22  23  24  25  26  
[Printable]
936
ASUS45 KREV 271110
RWRNV
NEVADA REGIONAL WEATHER ROUNDUP
NATIONAL WEATHER SERVICE RENO NV
300 AM PST THU NOV 27 2014

NOTE: "FAIR" INDICATES FEW OR NO CLOUDS BELOW 12,000 FEET WITH NO
SIGNIFICANT WEATHER AND/OR OBSTRUCTIONS TO VISIBILITY.

NVZ001-003-004-271200-
WESTERN NEVADA

CITY           SKY/WX    TMP DP  RH WIND       PRES   REMARKS
RENO           MOCLDY    46  26  45 N5        30.27F
CARSON CITY    FAIR      39  27  60 N3        30.30F
MINDEN         FAIR      45  23  42 N8        30.30
SLIDE MTN        N/A     37  19  48 W35         N/A
PYRAMID LAKE     N/A     50 N/A N/A CALM        N/A
FALLON         CLOUDY    41  23  48 S3        30.26F
LOVELOCK       CLOUDY    35  20  54 SW5       30.27F
HAWTHORNE      CLEAR     43  23  45 CALM      30.30F
$$

NVZ002-CAZ072-073-271200-
NORTHERN AND CENTRAL SIERRA

CITY           SKY/WX    TMP DP  RH WIND       PRES   REMARKS
S. LAKE TAHOE  PTCLDY    33  25  72 CALM      30.35F
TRUCKEE        MOCLDY    30  25  80 CALM      30.34F
SQUAW VLY 8000 NOT AVBL
SUSANVILLE     CLEAR     36  28  75 SW6       30.28
BLUE CANYON    CLOUDY    54  21  27 S8        30.34F
MAMMOTH LAKES  FAIR      32  14  47 CALM      30.45F
BRIDGEPORT     FAIR      33  21  61 VRB5      30.39F
$$

NVZ030-031-036-271200-
NORTHERN NEVADA

CITY           SKY/WX    TMP DP  RH WIND       PRES   REMARKS
ELKO           CLOUDY    33  28  81 CALM      30.32F
WINNEMUCCA     CLOUDY    42  30  62 CALM      30.25F
WENDOVER       CLOUDY    36  27  69 CALM      30.31F
$$

NVZ035-037-271200-
CENTRAL NEVADA

CITY           SKY/WX    TMP DP  RH WIND       PRES   REMARKS
ELY            MOCLDY    28  15  58 S12       30.42F
EUREKA           N/A     36  20  52 SW3       30.38S
$$

NVZ013-014-271200-
SOUTH CENTRAL NEVADA

CITY           SKY/WX    TMP DP  RH WIND       PRES   REMARKS
TONOPAH        CLOUDY    37  17  44 NE5       30.40F
$$

NVZ017-020-022-271200-
SOUTHERN NEVADA

CITY           SKY/WX    TMP DP  RH WIND       PRES   REMARKS
LAS VEGAS      CLEAR     48  18  30 SW7       30.27S
N. LAS VEGAS   CLEAR     45  20  36 E5        30.30S
NELLIS AFB     CLEAR     40  14  34 NE1       30.31S
HENDERSON      CLEAR     43  18  36 S8        30.31F
MERCURY        CLEAR     43  13  29 NW6       30.31F
$$




U.S. Dept. of Commerce
NOAA National Weather Service
1325 East West Highway
Silver Spring, MD 20910
E-mail: w-nws.webmaster@noaa.gov
Page last modified: May 16, 2007
NATIONAL WEATHER SERVICE: for Safety, for Work, for Fun - FOR LIFE